Cloud_Cover
100 56 92 92 54 100 64 77 6 92 34 36 88 100 71 7 5 3 2 0 0 0 5 1 0 2 5 16 98 51 100 5 48 45 49 97 100 35 67 100 100 100 100 100 100 100 100 100 89
98 92 79 100 94 100 92 83 72 72 54 27 42 60 74 74 47 86 24 2 0 1 5 1 0 0 5 11 5 26 11 69 69 5 56 29 58 6 11 6 54 91 100 96 78 98 96 23 95
100 94 76 95 100 31 8 44 100 12 50 12 27 72 67 96 51 34 0 2 0 1 4 2 0 4 5 5 43 72 26 5 5 42 20 5 5 6 87 33 27 31 63 7 94 87 13 25 32
100 81 84 99 23 5 10 5 88 12 5 5 85 65 100 97 2 0 20 0 0 1 0 0 1 0 5 5 5 18 7 5 16 5 5 5 16 82 74 80 93 72 49 48 36 76 38 84 100
100 100 70 63 94 97 69 100 99 46 40 80 77 98 100 97 10 0 7 12 4 7 0 0 0 3 4 0 4 7 5 8 48 37 12 67 26 75 98 100 100 77 88 100 100 79 38 51 86
96 65 80 100 100 100 100 55 64 53 53 52 68 100 98 70 74 7 6 0 0 5 0 0 0 0 4 5 0 1 4 11 7 5 14 5 5 42 28 7 8 10 38 24 99 77 95 98 96
100 96 96 80 100 52 100 88 13 75 59 80 9 81 95 98 50 2 0 2 10 0 0 0 2 0 0 0 5 5 6 37 85 98 46 31 15 50 100 100 98 17 82 69 74 96 88 10 7
100 100 81 100 100 67 100 38 76 96 100 100 98 50 99 81 68 8 19 29 11 1 1 2 0 0 8 0 4 5 5 73 5 70 89 94 42 100 100 100 100 100 100 100 72 51 5 5 16
91 100 100 100 69 79 62 98 100 100 100 100 100 100 29 96 70 40 86 86 59 33 19 1 0 15 11 0 0 0 5 5 5 5 8 100 70 100 79 91 29 64 77 84 99 62 83 86 40
100 100 100 100 100 96 82 80 98 100 100 100 99 76 37 30 8 41 97 100 100 57 50 12 0 0 0 0 0 0 0 0 1 4 5 54 80 14 2 0 0 1 2 1 66 64 79 100 72
100 100 75 100 100 100 99 77 97 72 100 79 63 64 19 8 85 5 5 24 17 6 14 10 0 0 0 0 0 2 10 0 0 2 5 4 5 16 0 0 0 0 0 0 0 0 0 0 0
100 100 100 63 99 100 100 100 100 93 100 90 100 6 5 80 100 23 3 5 4 5 0 0 0 0 0 0 0 2 0 3 3 0 0 0 15 0 0 0 0 0 0 0 0 0 0 0 0
100 49 100 38 100 100 100 100 100 100 100 100 100 54 14 55 100 47 5 5 0 4 1 0 0 0 0 0 0 0 0 5 2 0 0 0 0 0 0 0 0 0 0 0 0 0 0 0 0
6 57 38 71 100 100 100 100 100 100 100 100 100 72 21 8 66 100 30 5 0 2 1 0 0 0 0 0 0 0 0 0 0 0 0 0 0 0 0 0 0 0 0 0 0 0 0 0 0
5 5 5 51 100 96 92 100 100 100 100 100 100 15 5 23 55 96 54 20 5 2 4 1 0 0 0 0 0 0 0 0 0 0 0 0 0 0 0 0 0 0 0 0 0 0 0 0 0
1 4 1 5 34 67 75 100 71 82 84 100 100 76 24 94 75 57 96 52 52 5 18 23 0 0 0 0 0 0 0 0 0 0 0 0 0 0 0 0 0 0 0 0 0 0 0 0 0
5 5 0 4 0 1 0 46 46 60 20 81 100 98 30 92 27 56 97 100 96 15 5 76 0 0 0 0 0 0 0 0 0 0 0 0 0 0 0 0 0 0 0 0 0 0 0 0 0
5 5 5 5 0 0 2 3 0 46 70 28 11 25 45 100 100 6 67 87 98 19 41 97 5 0 0 0 0 0 0 0 0 0 0 0 0 0 0 0 0 0 0 0 0 0 0 0 0
14 5 5 5 0 0 0 5 5 60 91 63 5 10 100 100 100 100 100 100 100 92 87 100 5 5 0 0 0 0 0 0 0 0 0 0 0 0 0 0 0 0 0 0 0 0 0 0 0
9 5 50 10 5 0 0 0 0 6 5 64 16 62 100 99 100 100 100 100 100 99 100 100 5 6 63 0 0 0 0 0 0 0 0 0 0 0 0 0 0 0 0 0 0 0 0 0 0
49 7 6 5 5 2 0 0 0 20 22 5 5 5 29 88 100 100 100 100 100 41 100 100 75 5 6 0 0 0 0 0 0 0 0 0 0 0 0 0 0 0 0 0 0 0 0 0 0
13 5 60 5 5 3 4 2 0 0 1 71 12 5 13 68 92 100 100 100 83 24 100 100 100 100 5 2 0 0 0 0 0 0 0 0 0 0 0 0 0 0 0 0 0 0 0 0 0
26 90 71 5 5 4 1 0 5 5 0 0 4 12 27 85 30 100 100 100 27 36 100 98 100 100 13 8 0 0 0 0 0 0 0 0 0 0 0 0 0 0 0 0 0 0 0 0 0
5 100 15 5 16 3 0 0 0 1 4 4 4 5 50 5 10 57 77 96 78 100 100 100 100 100 100 32 29 4 0 0 0 0 0 0 0 0 0 0 0 0 0 0 0 0 0 0 0
5 82 98 60 5 1 26 0 0 0 5 3 4 3 7 58 25 55 76 42 94 71 100 100 100 100 100 100 100 15 78 0 0 0 0 0 0 0 0 0 0 0 0 0 0 0 0 0 0
0 5 9 8 4 0 37 0 0 5 5 5 3 11 49 100 100 92 29 100 100 97 100 67 100 100 100 100 100 23 15 100 24 0 0 0 0 0 0 0 0 0 0 0 0 0 0 0 0
0 0 36 81 80 0 0 2 7 5 0 0 0 0 66 88 70 100 100 99 98 100 83 100 100 100 100 100 100 100 51 59 97 26 0 0 0 0 0 0 0 0 0 0 0 0 0 0 0
0 0 0 0 2 3 0 3 77 4 5 3 1 1 4 31 86 100 100 100 100 100 100 73 100 100 100 100 100 100 100 100 53 94 100 83 8 0 0 0 0 0 0 0 0 0 0 0 0
0 0 0 0 0 0 0 0 100 2 4 3 5 5 21 98 64 52 100 100 100 100 86 100 100 100 98 100 98 100 100 100 100 100 100 99 22 0 0 0 0 0 0 0 0 0 0 0 0
0 0 0 0 0 0 0 0 78 90 7 4 3 5 50 73 99 99 100 100 100 100 100 100 100 100 98 100 100 100 100 100 100 42 61 36 5 4 0 0 0 0 0 0 0 0 0 0 0